Time,TemperatureF,DewpointF,PressureIn,WindDirection,WindDirectionDegrees,WindSpeedMPH,WindSpeedGustMPH,Humidity,HourlyPrecipIn,Conditions,Clouds,dailyrainin,SoftwareType,DateUTC
2013-03-26 00:00:00,35.0,27.0,30.02,WNW,292,2.0,4.0,76,0.00,,,0.00,TxWx,2013-03-26 04:00:00,
2013-03-26 00:02:00,35.0,27.0,30.02,NW,315,1.0,2.0,76,0.00,,,0.00,TxWx,2013-03-26 04:02:00,
2013-03-26 00:06:00,35.0,27.0,30.02,WNW,292,1.0,3.0,77,0.00,,,0.00,TxWx,2013-03-26 04:06:00,
2013-03-26 00:07:00,35.0,27.0,30.02,WNW,292,2.0,3.0,77,0.00,,,0.00,TxWx,2013-03-26 04:07:00,
2013-03-26 00:12:00,35.0,28.0,30.02,West,270,1.0,3.0,77,0.00,,,0.00,TxWx,2013-03-26 04:12:00,
2013-03-26 00:18:00,35.0,28.0,30.02,WNW,292,3.0,3.0,78,0.00,,,0.00,TxWx,2013-03-26 04:18:00,
2013-03-26 00:24:00,35.0,28.0,30.02,WSW,247,0.0,2.0,78,0.00,,,0.00,TxWx,2013-03-26 04:24:00,
2013-03-26 00:29:00,35.0,28.0,30.03,WNW,292,3.0,3.0,80,0.00,,,0.00,TxWx,2013-03-26 04:29:00,
2013-03-26 00:35:00,35.0,28.0,30.03,WSW,247,1.0,2.0,79,0.00,,,0.00,TxWx,2013-03-26 04:35:00,
2013-03-26 00:42:00,35.0,29.0,30.03,WNW,292,1.0,1.0,81,0.00,,,0.00,TxWx,2013-03-26 04:42:00,
2013-03-26 00:47:00,35.0,28.0,30.03,WNW,292,2.0,2.0,79,0.00,,,0.00,TxWx,2013-03-26 04:47:00,
2013-03-26 00:52:00,35.0,28.0,30.03,West,270,1.0,3.0,80,0.00,,,0.00,TxWx,2013-03-26 04:52:00,
2013-03-26 00:58:00,35.0,28.0,30.03,NW,315,2.0,3.0,80,0.00,,,0.00,TxWx,2013-03-26 04:58:00,
2013-03-26 01:03:00,34.0,27.0,30.03,WSW,247,1.0,2.0,80,0.00,,,0.00,TxWx,2013-03-26 05:03:00,
2013-03-26 01:09:00,34.0,28.0,30.03,WNW,292,2.0,4.0,81,0.00,,,0.00,TxWx,2013-03-26 05:09:00,
2013-03-26 01:16:00,34.0,28.0,30.03,WNW,292,3.0,5.0,82,0.00,,,0.00,TxWx,2013-03-26 05:16:00,
2013-03-26 01:21:00,34.0,28.0,30.03,SW,225,3.0,3.0,82,0.00,,,0.00,TxWx,2013-03-26 05:21:00,
2013-03-26 01:27:00,34.0,28.0,30.03,West,270,1.0,3.0,82,0.00,,,0.00,TxWx,2013-03-26 05:27:00,
2013-03-26 01:32:00,34.0,28.0,30.03,WSW,247,3.0,5.0,82,0.00,,,0.00,TxWx,2013-03-26 05:32:00,
2013-03-26 01:38:00,34.0,28.0,30.03,WSW,247,3.0,3.0,82,0.00,,,0.00,TxWx,2013-03-26 05:38:00,
2013-03-26 01:44:00,34.0,28.0,30.03,West,270,3.0,3.0,83,0.00,,,0.00,TxWx,2013-03-26 05:44:00,
2013-03-26 01:49:00,34.0,28.0,30.03,WNW,292,2.0,3.0,83,0.00,,,0.00,TxWx,2013-03-26 05:49:00,
2013-03-26 01:54:00,34.0,28.0,30.03,West,270,3.0,4.0,83,0.00,,,0.00,TxWx,2013-03-26 05:54:00,
2013-03-26 02:00:00,34.0,28.0,30.03,WNW,292,3.0,4.0,83,0.00,,,0.00,TxWx,2013-03-26 06:00:00,
2013-03-26 02:05:00,34.0,28.0,30.04,West,270,3.0,5.0,83,0.00,,,0.00,TxWx,2013-03-26 06:05:00,
2013-03-26 02:11:00,34.0,28.0,30.04,West,270,3.0,5.0,83,0.00,,,0.00,TxWx,2013-03-26 06:11:00,
2013-03-26 02:16:00,34.0,28.0,30.04,WSW,247,3.0,4.0,83,0.00,,,0.00,TxWx,2013-03-26 06:16:00,
2013-03-26 02:22:00,34.0,28.0,30.04,SW,225,1.0,2.0,82,0.00,,,0.00,TxWx,2013-03-26 06:22:00,
2013-03-26 02:27:00,34.0,28.0,30.04,West,270,1.0,2.0,82,0.00,,,0.00,TxWx,2013-03-26 06:27:00,
2013-03-26 02:33:00,34.0,28.0,30.04,WSW,247,3.0,3.0,82,0.00,,,0.00,TxWx,2013-03-26 06:33:00,
2013-03-26 02:38:00,34.0,28.0,30.04,SW,225,3.0,3.0,82,0.00,,,0.00,TxWx,2013-03-26 06:38:00,
2013-03-26 02:44:00,34.0,28.0,30.04,WSW,247,2.0,3.0,82,0.00,,,0.00,TxWx,2013-03-26 06:44:00,
2013-03-26 02:49:00,34.0,28.0,30.04,West,270,3.0,3.0,82,0.00,,,0.00,TxWx,2013-03-26 06:49:00,
2013-03-26 02:55:00,34.0,28.0,30.04,West,270,3.0,5.0,82,0.00,,,0.00,TxWx,2013-03-26 06:55:00,
2013-03-26 03:01:00,34.0,28.0,30.04,WSW,247,3.0,4.0,82,0.00,,,0.00,TxWx,2013-03-26 07:01:00,
2013-03-26 03:06:00,34.0,28.0,30.04,WSW,247,2.0,3.0,82,0.00,,,0.00,TxWx,2013-03-26 07:06:00,
2013-03-26 03:12:00,34.0,28.0,30.04,WSW,247,1.0,3.0,82,0.00,,,0.00,TxWx,2013-03-26 07:12:00,
2013-03-26 03:18:00,34.0,28.0,30.04,West,270,1.0,3.0,82,0.00,,,0.00,TxWx,2013-03-26 07:18:00,
2013-03-26 03:24:00,34.0,28.0,30.04,West,270,1.0,2.0,82,0.00,,,0.00,TxWx,2013-03-26 07:24:00,
2013-03-26 03:29:00,34.0,28.0,30.04,West,270,1.0,2.0,82,0.00,,,0.00,TxWx,2013-03-26 07:29:00,
2013-03-26 03:34:00,34.0,28.0,30.04,WSW,247,3.0,5.0,81,0.00,,,0.00,TxWx,2013-03-26 07:34:00,
2013-03-26 03:40:00,34.0,28.0,30.04,WSW,247,3.0,4.0,81,0.00,,,0.00,TxWx,2013-03-26 07:40:00,
2013-03-26 03:46:00,34.0,28.0,30.04,West,270,2.0,3.0,81,0.00,,,0.00,TxWx,2013-03-26 07:46:00,
2013-03-26 03:52:00,34.0,28.0,30.04,WSW,247,1.0,3.0,81,0.00,,,0.00,TxWx,2013-03-26 07:52:00,
2013-03-26 03:57:00,33.0,27.0,30.04,WSW,247,2.0,4.0,81,0.00,,,0.00,TxWx,2013-03-26 07:57:00,
2013-03-26 04:03:00,33.0,27.0,30.04,WSW,247,3.0,5.0,81,0.00,,,0.00,TxWx,2013-03-26 08:03:00,
2013-03-26 04:08:00,33.0,27.0,30.04,WSW,247,1.0,4.0,81,0.00,,,0.00,TxWx,2013-03-26 08:08:00,
2013-03-26 04:13:00,33.0,27.0,30.04,SW,225,3.0,4.0,82,0.00,,,0.00,TxWx,2013-03-26 08:13:00,
2013-03-26 04:18:00,33.0,27.0,30.04,WSW,247,3.0,5.0,82,0.00,,,0.00,TxWx,2013-03-26 08:18:00,
2013-03-26 04:24:00,33.0,27.0,30.04,WSW,247,2.0,3.0,82,0.00,,,0.00,TxWx,2013-03-26 08:24:00,
2013-03-26 04:29:00,33.0,27.0,30.04,WSW,247,2.0,3.0,82,0.00,,,0.00,TxWx,2013-03-26 08:29:00,
2013-03-26 04:34:00,33.0,27.0,30.04,WSW,247,2.0,2.0,82,0.00,,,0.00,TxWx,2013-03-26 08:34:00,
2013-03-26 04:40:00,33.0,27.0,30.04,West,270,2.0,3.0,82,0.00,,,0.00,TxWx,2013-03-26 08:40:00,
2013-03-26 04:45:00,33.0,27.0,30.04,SW,225,3.0,5.0,82,0.00,,,0.00,TxWx,2013-03-26 08:45:00,
2013-03-26 04:50:00,33.0,27.0,30.04,WSW,247,3.0,4.0,82,0.00,,,0.00,TxWx,2013-03-26 08:50:00,
2013-03-26 04:57:00,33.0,27.0,30.04,WSW,247,1.0,3.0,82,0.00,,,0.00,TxWx,2013-03-26 08:57:00,
2013-03-26 05:03:00,33.0,27.0,30.05,WSW,247,2.0,4.0,81,0.00,,,0.00,TxWx,2013-03-26 09:03:00,
2013-03-26 05:09:00,33.0,27.0,30.05,WNW,292,3.0,4.0,81,0.00,,,0.00,TxWx,2013-03-26 09:09:00,
2013-03-26 05:15:00,33.0,27.0,30.05,SW,225,4.0,5.0,82,0.00,,,0.00,TxWx,2013-03-26 09:15:00,
2013-03-26 05:20:00,34.0,28.0,30.05,West,270,3.0,4.0,81,0.00,,,0.00,TxWx,2013-03-26 09:20:00,
2013-03-26 05:25:00,34.0,28.0,30.05,West,270,2.0,5.0,81,0.00,,,0.00,TxWx,2013-03-26 09:25:00,
2013-03-26 05:32:00,34.0,28.0,30.05,WSW,247,3.0,5.0,81,0.00,,,0.00,TxWx,2013-03-26 09:32:00,
2013-03-26 05:38:00,33.0,27.0,30.05,SW,225,5.0,5.0,81,0.00,,,0.00,TxWx,2013-03-26 09:38:00,
2013-03-26 05:44:00,34.0,28.0,30.05,SW,225,1.0,5.0,82,0.00,,,0.00,TxWx,2013-03-26 09:44:00,
2013-03-26 05:50:00,33.0,27.0,30.06,WSW,247,3.0,5.0,82,0.00,,,0.00,TxWx,2013-03-26 09:50:00,
2013-03-26 05:55:00,33.0,27.0,30.06,WSW,247,5.0,5.0,82,0.00,,,0.00,TxWx,2013-03-26 09:55:00,
2013-03-26 06:01:00,33.0,27.0,30.06,SW,225,3.0,4.0,82,0.00,,,0.00,TxWx,2013-03-26 10:01:00,
2013-03-26 06:07:00,34.0,28.0,30.06,SSW,202,3.0,3.0,82,0.00,,,0.00,TxWx,2013-03-26 10:07:00,
2013-03-26 06:12:00,34.0,28.0,30.06,WSW,247,3.0,4.0,82,0.00,,,0.00,TxWx,2013-03-26 10:12:00,
2013-03-26 06:18:00,34.0,28.0,30.06,SSW,202,3.0,3.0,82,0.00,,,0.00,TxWx,2013-03-26 10:18:00,
2013-03-26 06:24:00,34.0,28.0,30.06,WSW,247,5.0,5.0,82,0.00,,,0.00,TxWx,2013-03-26 10:24:00,
2013-03-26 06:29:00,34.0,28.0,30.06,WSW,247,3.0,3.0,82,0.00,,,0.00,TxWx,2013-03-26 10:29:00,
2013-03-26 06:34:00,34.0,28.0,30.06,SW,225,3.0,5.0,82,0.00,,,0.00,TxWx,2013-03-26 10:34:00,
2013-03-26 06:40:00,34.0,28.0,30.07,West,270,2.0,3.0,82,0.00,,,0.00,TxWx,2013-03-26 10:40:00,
2013-03-26 06:45:00,34.0,28.0,30.07,SW,225,2.0,2.0,82,0.00,,,0.00,TxWx,2013-03-26 10:45:00,
2013-03-26 06:51:00,34.0,28.0,30.07,WSW,247,1.0,3.0,82,0.00,,,0.00,TxWx,2013-03-26 10:51:00,
2013-03-26 06:57:00,34.0,28.0,30.07,SW,225,3.0,3.0,82,0.00,,,0.00,TxWx,2013-03-26 10:57:00,
2013-03-26 07:02:00,34.0,28.0,30.07,SSW,202,1.0,3.0,83,0.00,,,0.00,TxWx,2013-03-26 11:02:00,
2013-03-26 07:08:00,34.0,28.0,30.07,SSW,202,2.0,3.0,83,0.00,,,0.00,TxWx,2013-03-26 11:08:00,
2013-03-26 07:13:00,34.0,28.0,30.08,WSW,247,3.0,3.0,83,0.00,,,0.00,TxWx,2013-03-26 11:13:00,
2013-03-26 07:19:00,34.0,28.0,30.08,SW,225,1.0,3.0,83,0.00,,,0.00,TxWx,2013-03-26 11:19:00,
2013-03-26 07:26:00,34.0,28.0,30.08,SW,225,3.0,4.0,83,0.00,,,0.00,TxWx,2013-03-26 11:26:00,
2013-03-26 07:32:00,34.0,28.0,30.08,SW,225,3.0,3.0,83,0.00,,,0.00,TxWx,2013-03-26 11:32:00,
2013-03-26 07:37:00,34.0,28.0,30.09,SSW,202,2.0,3.0,83,0.00,,,0.00,TxWx,2013-03-26 11:37:00,
2013-03-26 07:42:00,34.0,28.0,30.09,SW,225,3.0,3.0,83,0.00,,,0.00,TxWx,2013-03-26 11:42:00,
2013-03-26 07:48:00,34.0,28.0,30.09,SW,225,2.0,3.0,83,0.00,,,0.00,TxWx,2013-03-26 11:48:00,
2013-03-26 07:53:00,34.0,28.0,30.09,SW,225,1.0,3.0,83,0.00,,,0.00,TxWx,2013-03-26 11:53:00,
2013-03-26 07:59:00,34.0,28.0,30.09,SW,225,2.0,3.0,82,0.00,,,0.00,TxWx,2013-03-26 11:59:00,
2013-03-26 08:04:00,35.0,29.0,30.09,SW,225,2.0,3.0,82,0.00,,,0.00,TxWx,2013-03-26 12:04:00,
2013-03-26 08:10:00,35.0,29.0,30.09,SSW,202,4.0,5.0,82,0.00,,,0.00,TxWx,2013-03-26 12:10:00,
2013-03-26 08:15:00,35.0,29.0,30.10,SW,225,4.0,4.0,82,0.00,,,0.00,TxWx,2013-03-26 12:15:00,
2013-03-26 08:21:00,35.0,29.0,30.10,WSW,247,3.0,6.0,82,0.00,,,0.00,TxWx,2013-03-26 12:21:00,
2013-03-26 08:26:00,35.0,29.0,30.10,West,270,2.0,3.0,82,0.00,,,0.00,TxWx,2013-03-26 12:26:00,
2013-03-26 08:32:00,35.0,29.0,30.10,WSW,247,3.0,5.0,81,0.00,,,0.00,TxWx,2013-03-26 12:32:00,
2013-03-26 08:37:00,35.0,29.0,30.10,WSW,247,4.0,6.0,81,0.00,,,0.00,TxWx,2013-03-26 12:37:00,
2013-03-26 08:42:00,35.0,29.0,30.10,WSW,247,3.0,6.0,81,0.00,,,0.00,TxWx,2013-03-26 12:42:00,
2013-03-26 08:48:00,35.0,28.0,30.10,WSW,247,3.0,4.0,80,0.00,,,0.00,TxWx,2013-03-26 12:48:00,
2013-03-26 08:53:00,35.0,28.0,30.10,WSW,247,5.0,6.0,80,0.00,,,0.00,TxWx,2013-03-26 12:53:00,
2013-03-26 08:58:00,36.0,29.0,30.10,West,270,4.0,6.0,79,0.00,,,0.00,TxWx,2013-03-26 12:58:00,
2013-03-26 09:05:00,36.0,29.0,30.11,WSW,247,4.0,6.0,79,0.00,,,0.00,TxWx,2013-03-26 13:05:00,
2013-03-26 09:10:00,36.0,29.0,30.11,SW,225,5.0,6.0,78,0.00,,,0.00,TxWx,2013-03-26 13:10:00,
2013-03-26 09:16:00,36.0,29.0,30.11,WNW,292,3.0,4.0,78,0.00,,,0.00,TxWx,2013-03-26 13:16:00,
2013-03-26 09:22:00,36.0,29.0,30.11,WSW,247,6.0,7.0,78,0.00,,,0.00,TxWx,2013-03-26 13:22:00,
2013-03-26 09:27:00,36.0,28.0,30.11,SSW,202,3.0,7.0,77,0.00,,,0.00,TxWx,2013-03-26 13:27:00,
2013-03-26 09:33:00,36.0,28.0,30.12,West,270,1.0,3.0,77,0.00,,,0.00,TxWx,2013-03-26 13:33:00,
2013-03-26 09:39:00,36.0,28.0,30.11,WSW,247,5.0,5.0,77,0.00,,,0.00,TxWx,2013-03-26 13:39:00,
2013-03-26 09:45:00,37.0,29.0,30.12,NW,315,3.0,4.0,77,0.00,,,0.00,TxWx,2013-03-26 13:45:00,
2013-03-26 09:51:00,37.0,29.0,30.12,WSW,247,3.0,3.0,76,0.00,,,0.00,TxWx,2013-03-26 13:51:00,
2013-03-26 09:56:00,37.0,29.0,30.12,SW,225,5.0,5.0,76,0.00,,,0.00,TxWx,2013-03-26 13:56:00,
2013-03-26 10:02:00,37.0,29.0,30.12,WSW,247,4.0,6.0,76,0.00,,,0.00,TxWx,2013-03-26 14:02:00,
2013-03-26 10:07:00,37.0,29.0,30.12,WNW,292,3.0,5.0,76,0.00,,,0.00,TxWx,2013-03-26 14:07:00,
2013-03-26 10:12:00,38.0,30.0,30.13,WSW,247,3.0,3.0,75,0.00,,,0.00,TxWx,2013-03-26 14:12:00,
2013-03-26 10:18:00,38.0,30.0,30.13,SW,225,4.0,6.0,75,0.00,,,0.00,TxWx,2013-03-26 14:18:00,
2013-03-26 10:23:00,38.0,30.0,30.13,SW,225,1.0,3.0,75,0.00,,,0.00,TxWx,2013-03-26 14:23:00,
2013-03-26 10:28:00,39.0,30.0,30.13,NW,315,1.0,3.0,73,0.00,,,0.00,TxWx,2013-03-26 14:28:00,
2013-03-26 10:35:00,40.0,31.0,30.13,West,270,1.0,3.0,72,0.00,,,0.00,TxWx,2013-03-26 14:35:00,
2013-03-26 10:40:00,40.0,29.0,30.14,NW,315,5.0,6.0,66,0.00,,,0.00,TxWx,2013-03-26 14:40:00,
2013-03-26 10:45:00,40.0,28.0,30.13,West,270,2.0,5.0,64,0.00,,,0.00,TxWx,2013-03-26 14:45:00,
2013-03-26 10:50:00,41.0,29.0,30.13,West,270,2.0,3.0,65,0.00,,,0.00,TxWx,2013-03-26 14:50:00,
2013-03-26 10:56:00,41.0,28.0,30.13,WNW,292,6.0,8.0,63,0.00,,,0.00,TxWx,2013-03-26 14:56:00,
2013-03-26 11:01:00,41.0,29.0,30.14,NW,315,3.0,5.0,64,0.00,,,0.00,TxWx,2013-03-26 15:01:00,
2013-03-26 11:07:00,41.0,28.0,30.14,WNW,292,4.0,6.0,62,0.00,,,0.00,TxWx,2013-03-26 15:07:00,
2013-03-26 11:12:00,41.0,27.0,30.14,NNW,337,5.0,6.0,61,0.00,,,0.00,TxWx,2013-03-26 15:12:00,
2013-03-26 11:17:00,41.0,27.0,30.14,NNE,22,5.0,9.0,60,0.00,,,0.00,TxWx,2013-03-26 15:17:00,
2013-03-26 11:22:00,41.0,28.0,30.14,North,0,5.0,7.0,61,0.00,,,0.00,TxWx,2013-03-26 15:22:00,
2013-03-26 11:28:00,41.0,27.0,30.14,WNW,292,5.0,8.0,60,0.00,,,0.00,TxWx,2013-03-26 15:28:00,
2013-03-26 11:33:00,42.0,29.0,30.14,East,90,1.0,5.0,62,0.00,,,0.00,TxWx,2013-03-26 15:33:00,
2013-03-26 11:38:00,42.0,28.0,30.15,WNW,292,6.0,9.0,60,0.00,,,0.00,TxWx,2013-03-26 15:38:00,
2013-03-26 11:44:00,42.0,29.0,30.15,WNW,292,3.0,6.0,63,0.00,,,0.00,TxWx,2013-03-26 15:44:00,
2013-03-26 11:50:00,42.0,28.0,30.15,NW,315,4.0,6.0,59,0.00,,,0.00,TxWx,2013-03-26 15:50:00,
2013-03-26 11:55:00,43.0,28.0,30.15,NW,315,4.0,5.0,59,0.00,,,0.00,TxWx,2013-03-26 15:55:00,
2013-03-26 12:01:00,43.0,27.0,30.15,WNW,292,3.0,4.0,56,0.00,,,0.00,TxWx,2013-03-26 16:01:00,
2013-03-26 12:07:00,43.0,28.0,30.15,WNW,292,6.0,7.0,57,0.00,,,0.00,TxWx,2013-03-26 16:07:00,
2013-03-26 12:13:00,44.0,29.0,30.15,West,270,4.0,5.0,57,0.00,,,0.00,TxWx,2013-03-26 16:13:00,
2013-03-26 12:18:00,44.0,28.0,30.14,NE,45,5.0,6.0,55,0.00,,,0.00,TxWx,2013-03-26 16:18:00,
2013-03-26 12:24:00,44.0,28.0,30.15,NNE,22,3.0,5.0,55,0.00,,,0.00,TxWx,2013-03-26 16:24:00,
2013-03-26 12:29:00,45.0,28.0,30.15,SW,225,1.0,6.0,54,0.00,,,0.00,TxWx,2013-03-26 16:29:00,
2013-03-26 12:35:00,44.0,27.0,30.15,WSW,247,3.0,5.0,54,0.00,,,0.00,TxWx,2013-03-26 16:35:00,
2013-03-26 12:40:00,44.0,27.0,30.14,NW,315,3.0,6.0,54,0.00,,,0.00,TxWx,2013-03-26 16:40:00,
2013-03-26 12:46:00,45.0,28.0,30.15,NNW,337,2.0,6.0,54,0.00,,,0.00,TxWx,2013-03-26 16:46:00,
2013-03-26 12:52:00,45.0,27.0,30.15,NW,315,6.0,7.0,51,0.00,,,0.00,TxWx,2013-03-26 16:52:00,
2013-03-26 12:57:00,45.0,28.0,30.14,West,270,5.0,6.0,53,0.00,,,0.00,TxWx,2013-03-26 16:57:00,
2013-03-26 13:02:00,45.0,28.0,30.14,NW,315,3.0,6.0,53,0.00,,,0.00,TxWx,2013-03-26 17:02:00,
2013-03-26 13:08:00,44.0,27.0,30.14,NNW,337,3.0,5.0,53,0.00,,,0.00,TxWx,2013-03-26 17:08:00,
2013-03-26 13:13:00,45.0,27.0,30.15,WSW,247,3.0,6.0,52,0.00,,,0.00,TxWx,2013-03-26 17:13:00,
2013-03-26 13:18:00,45.0,27.0,30.15,NW,315,8.0,8.0,52,0.00,,,0.00,TxWx,2013-03-26 17:18:00,
2013-03-26 13:24:00,44.0,26.0,30.15,North,0,3.0,8.0,52,0.00,,,0.00,TxWx,2013-03-26 17:24:00,
2013-03-26 13:29:00,44.0,25.0,30.15,WNW,292,5.0,6.0,50,0.00,,,0.00,TxWx,2013-03-26 17:29:00,
2013-03-26 13:35:00,44.0,26.0,30.15,WNW,292,5.0,7.0,50,0.00,,,0.00,TxWx,2013-03-26 17:35:00,
2013-03-26 13:42:00,45.0,27.0,30.15,NNW,337,4.0,5.0,51,0.00,,,0.00,TxWx,2013-03-26 17:42:00,
2013-03-26 13:47:00,45.0,27.0,30.15,WNW,292,3.0,6.0,51,0.00,,,0.00,TxWx,2013-03-26 17:47:00,
2013-03-26 13:53:00,45.0,26.0,30.15,WNW,292,3.0,5.0,49,0.00,,,0.00,TxWx,2013-03-26 17:53:00,
2013-03-26 13:59:00,46.0,27.0,30.15,West,270,5.0,8.0,49,0.00,,,0.00,TxWx,2013-03-26 17:59:00,
2013-03-26 14:04:00,46.0,26.0,30.14,WNW,292,4.0,5.0,48,0.00,,,0.00,TxWx,2013-03-26 18:04:00,
2013-03-26 14:09:00,46.0,26.0,30.15,WNW,292,6.0,6.0,48,0.00,,,0.00,TxWx,2013-03-26 18:09:00,
2013-03-26 14:14:00,46.0,26.0,30.15,West,270,4.0,9.0,48,0.00,,,0.00,TxWx,2013-03-26 18:14:00,
2013-03-26 14:20:00,46.0,26.0,30.15,North,0,3.0,5.0,48,0.00,,,0.00,TxWx,2013-03-26 18:20:00,
2013-03-26 14:25:00,47.0,27.0,30.15,WNW,292,5.0,6.0,48,0.00,,,0.00,TxWx,2013-03-26 18:25:00,
2013-03-26 14:33:00,46.0,25.0,30.14,WSW,247,7.0,8.0,45,0.00,,,0.00,TxWx,2013-03-26 18:33:00,
2013-03-26 14:38:00,46.0,25.0,30.15,NW,315,6.0,12.0,45,0.00,,,0.00,TxWx,2013-03-26 18:38:00,
2013-03-26 14:43:00,46.0,24.0,30.15,ESE,112,3.0,7.0,44,0.00,,,0.00,TxWx,2013-03-26 18:43:00,
2013-03-26 14:48:00,46.0,24.0,30.14,WNW,292,4.0,6.0,44,0.00,,,0.00,TxWx,2013-03-26 18:48:00,
2013-03-26 14:53:00,46.0,23.0,30.15,NNW,337,7.0,10.0,43,0.00,,,0.00,TxWx,2013-03-26 18:53:00,
2013-03-26 15:00:00,46.0,24.0,30.15,WNW,292,6.0,6.0,44,0.00,,,0.00,TxWx,2013-03-26 19:00:00,
2013-03-26 15:05:00,46.0,24.0,30.15,NNW,337,5.0,6.0,44,0.00,,,0.00,TxWx,2013-03-26 19:05:00,
2013-03-26 15:10:00,46.0,23.0,30.15,NW,315,1.0,10.0,43,0.00,,,0.00,TxWx,2013-03-26 19:10:00,
2013-03-26 15:16:00,46.0,26.0,30.15,ENE,67,2.0,4.0,48,0.00,,,0.00,TxWx,2013-03-26 19:16:00,
2013-03-26 15:21:00,46.0,24.0,30.15,North,0,3.0,6.0,44,0.00,,,0.00,TxWx,2013-03-26 19:21:00,
2013-03-26 15:27:00,46.0,28.0,30.15,ESE,112,4.0,7.0,52,0.00,,,0.00,TxWx,2013-03-26 19:27:00,
2013-03-26 15:32:00,46.0,29.0,30.15,SSW,202,8.0,11.0,53,0.00,,,0.00,TxWx,2013-03-26 19:32:00,
2013-03-26 15:38:00,44.0,30.0,30.15,WSW,247,8.0,9.0,60,0.00,,,0.00,TxWx,2013-03-26 19:38:00,
2013-03-26 15:44:00,44.0,31.0,30.15,SSW,202,8.0,10.0,62,0.00,,,0.00,TxWx,2013-03-26 19:44:00,
2013-03-26 15:49:00,43.0,31.0,30.14,SW,225,10.0,13.0,64,0.00,,,0.00,TxWx,2013-03-26 19:49:00,
2013-03-26 15:54:00,42.0,30.0,30.14,SSW,202,11.0,16.0,66,0.00,,,0.00,TxWx,2013-03-26 19:54:00,
2013-03-26 16:00:00,42.0,31.0,30.15,SW,225,5.0,13.0,67,0.00,,,0.00,TxWx,2013-03-26 20:00:00,
2013-03-26 16:05:00,41.0,30.0,30.15,SW,225,8.0,13.0,68,0.00,,,0.00,TxWx,2013-03-26 20:05:00,
2013-03-26 16:11:00,41.0,31.0,30.15,WSW,247,8.0,11.0,70,0.00,,,0.00,TxWx,2013-03-26 20:11:00,
2013-03-26 16:16:00,41.0,31.0,30.15,SSW,202,13.0,16.0,69,0.00,,,0.00,TxWx,2013-03-26 20:16:00,
2013-03-26 16:22:00,41.0,30.0,30.16,SSW,202,11.0,15.0,68,0.00,,,0.00,TxWx,2013-03-26 20:22:00,
2013-03-26 16:27:00,42.0,32.0,30.16,WSW,247,6.0,12.0,68,0.00,,,0.00,TxWx,2013-03-26 20:27:00,
2013-03-26 16:33:00,41.0,31.0,30.16,SW,225,6.0,10.0,69,0.00,,,0.00,TxWx,2013-03-26 20:33:00,
2013-03-26 16:39:00,41.0,32.0,30.16,SSW,202,5.0,9.0,71,0.00,,,0.00,TxWx,2013-03-26 20:39:00,
2013-03-26 16:44:00,41.0,33.0,30.16,South,180,5.0,8.0,72,0.00,,,0.00,TxWx,2013-03-26 20:44:00,
2013-03-26 16:51:00,42.0,33.0,30.16,WSW,247,8.0,11.0,71,0.00,,,0.00,TxWx,2013-03-26 20:51:00,
2013-03-26 16:57:00,42.0,33.0,30.16,South,180,7.0,11.0,71,0.00,,,0.00,TxWx,2013-03-26 20:57:00,
2013-03-26 17:03:00,43.0,34.0,30.16,SSW,202,7.0,8.0,69,0.00,,,0.00,TxWx,2013-03-26 21:03:00,
2013-03-26 17:09:00,43.0,33.0,30.15,SW,225,8.0,9.0,68,0.00,,,0.00,TxWx,2013-03-26 21:09:00,
2013-03-26 17:15:00,42.0,32.0,30.16,SW,225,6.0,10.0,68,0.00,,,0.00,TxWx,2013-03-26 21:15:00,
2013-03-26 17:20:00,42.0,33.0,30.16,SW,225,9.0,9.0,69,0.00,,,0.00,TxWx,2013-03-26 21:20:00,
2013-03-26 17:26:00,41.0,32.0,30.16,South,180,5.0,10.0,71,0.00,,,0.00,TxWx,2013-03-26 21:26:00,
2013-03-26 17:32:00,41.0,33.0,30.16,South,180,5.0,8.0,73,0.00,,,0.00,TxWx,2013-03-26 21:32:00,
2013-03-26 17:37:00,40.0,32.0,30.16,SW,225,6.0,10.0,73,0.00,,,0.00,TxWx,2013-03-26 21:37:00,
2013-03-26 17:43:00,41.0,33.0,30.16,SW,225,7.0,7.0,74,0.00,,,0.00,TxWx,2013-03-26 21:43:00,
2013-03-26 17:48:00,41.0,33.0,30.16,SW,225,5.0,7.0,73,0.00,,,0.00,TxWx,2013-03-26 21:48:00,
2013-03-26 17:53:00,41.0,33.0,30.16,SW,225,7.0,8.0,73,0.00,,,0.00,TxWx,2013-03-26 21:53:00,
2013-03-26 17:59:00,40.0,31.0,30.16,WSW,247,7.0,10.0,72,0.00,,,0.00,TxWx,2013-03-26 21:59:00,
2013-03-26 18:04:00,40.0,31.0,30.16,SSW,202,6.0,9.0,72,0.00,,,0.00,TxWx,2013-03-26 22:04:00,
2013-03-26 18:11:00,41.0,32.0,30.16,WSW,247,4.0,7.0,72,0.00,,,0.00,TxWx,2013-03-26 22:11:00,
2013-03-26 18:17:00,41.0,32.0,30.17,SW,225,8.0,8.0,71,0.00,,,0.00,TxWx,2013-03-26 22:17:00,
2013-03-26 18:22:00,41.0,31.0,30.17,SSW,202,5.0,7.0,70,0.00,,,0.00,TxWx,2013-03-26 22:22:00,
2013-03-26 18:28:00,42.0,32.0,30.17,West,270,3.0,5.0,68,0.00,,,0.00,TxWx,2013-03-26 22:28:00,
2013-03-26 18:33:00,42.0,31.0,30.17,WSW,247,5.0,6.0,67,0.00,,,0.00,TxWx,2013-03-26 22:33:00,
2013-03-26 18:39:00,41.0,30.0,30.17,SSW,202,3.0,6.0,68,0.00,,,0.00,TxWx,2013-03-26 22:39:00,
2013-03-26 18:44:00,41.0,30.0,30.17,WSW,247,6.0,7.0,67,0.00,,,0.00,TxWx,2013-03-26 22:44:00,
2013-03-26 18:49:00,41.0,30.0,30.17,WSW,247,4.0,6.0,66,0.00,,,0.00,TxWx,2013-03-26 22:49:00,
2013-03-26 18:55:00,41.0,29.0,30.18,WSW,247,5.0,5.0,65,0.00,,,0.00,TxWx,2013-03-26 22:55:00,
2013-03-26 19:02:00,42.0,30.0,30.18,WSW,247,2.0,4.0,64,0.00,,,0.00,TxWx,2013-03-26 23:02:00,
2013-03-26 19:08:00,42.0,29.0,30.18,WSW,247,3.0,5.0,64,0.00,,,0.00,TxWx,2013-03-26 23:08:00,
2013-03-26 19:13:00,42.0,29.0,30.18,West,270,5.0,6.0,63,0.00,,,0.00,TxWx,2013-03-26 23:13:00,
2013-03-26 19:19:00,42.0,29.0,30.18,SW,225,5.0,6.0,63,0.00,,,0.00,TxWx,2013-03-26 23:19:00,
2013-03-26 19:24:00,42.0,29.0,30.18,WSW,247,2.0,5.0,64,0.00,,,0.00,TxWx,2013-03-26 23:24:00,
2013-03-26 19:30:00,42.0,29.0,30.18,SW,225,4.0,7.0,63,0.00,,,0.00,TxWx,2013-03-26 23:30:00,
2013-03-26 19:35:00,42.0,29.0,30.19,West,270,2.0,4.0,64,0.00,,,0.00,TxWx,2013-03-26 23:35:00,
2013-03-26 19:41:00,42.0,29.0,30.19,SW,225,4.0,4.0,63,0.00,,,0.00,TxWx,2013-03-26 23:41:00,
2013-03-26 19:47:00,42.0,29.0,30.19,SSW,202,2.0,3.0,63,0.00,,,0.00,TxWx,2013-03-26 23:47:00,
2013-03-26 19:53:00,42.0,29.0,30.19,SW,225,4.0,4.0,63,0.00,,,0.00,TxWx,2013-03-26 23:53:00,
2013-03-26 19:58:00,42.0,29.0,30.19,WSW,247,4.0,5.0,63,0.00,,,0.00,TxWx,2013-03-26 23:58:00,
2013-03-26 20:03:00,42.0,29.0,30.19,WNW,292,3.0,7.0,62,0.00,,,0.00,TxWx,2013-03-27 00:03:00,
2013-03-26 20:08:00,42.0,28.0,30.20,West,270,6.0,7.0,59,0.00,,,0.00,TxWx,2013-03-27 00:08:00,
2013-03-26 20:14:00,42.0,27.0,30.20,West,270,6.0,10.0,58,0.00,,,0.00,TxWx,2013-03-27 00:14:00,
2013-03-26 20:20:00,42.0,27.0,30.20,WSW,247,7.0,10.0,59,0.00,,,0.00,TxWx,2013-03-27 00:20:00,
2013-03-26 20:27:00,41.0,28.0,30.21,West,270,5.0,9.0,62,0.00,,,0.00,TxWx,2013-03-27 00:27:00,
2013-03-26 20:33:00,39.0,28.0,30.21,SW,225,10.0,11.0,67,0.00,,,0.00,TxWx,2013-03-27 00:33:00,
2013-03-26 20:38:00,38.0,29.0,30.22,WSW,247,5.0,9.0,74,0.00,,,0.00,TxWx,2013-03-27 00:38:00,
2013-03-26 20:43:00,38.0,30.0,30.22,SSW,202,4.0,6.0,76,0.00,,,0.00,TxWx,2013-03-27 00:43:00,
2013-03-26 20:49:00,37.0,30.0,30.22,SSW,202,5.0,10.0,78,0.00,,,0.00,TxWx,2013-03-27 00:49:00,
2013-03-26 20:54:00,37.0,30.0,30.22,SW,225,3.0,6.0,80,0.00,,,0.00,TxWx,2013-03-27 00:54:00,
2013-03-26 20:59:00,37.0,31.0,30.22,SSW,202,5.0,7.0,81,0.00,,,0.00,TxWx,2013-03-27 00:59:00,
2013-03-26 21:05:00,36.0,30.0,30.22,SW,225,2.0,5.0,83,0.00,,,0.00,TxWx,2013-03-27 01:05:00,
2013-03-26 21:10:00,36.0,31.0,30.23,West,270,4.0,6.0,84,0.00,,,0.00,TxWx,2013-03-27 01:10:00,
2013-03-26 21:15:00,36.0,31.0,30.23,WNW,292,4.0,5.0,84,0.00,,,0.00,TxWx,2013-03-27 01:15:00,
2013-03-26 21:21:00,36.0,31.0,30.23,SW,225,5.0,5.0,84,0.00,,,0.00,TxWx,2013-03-27 01:21:00,
2013-03-26 21:26:00,36.0,31.0,30.23,SW,225,5.0,5.0,85,0.00,,,0.00,TxWx,2013-03-27 01:26:00,
2013-03-26 21:31:00,36.0,31.0,30.23,WSW,247,3.0,4.0,85,0.00,,,0.00,TxWx,2013-03-27 01:31:00,
2013-03-26 21:37:00,36.0,31.0,30.23,South,180,3.0,3.0,85,0.00,,,0.00,TxWx,2013-03-27 01:37:00,
2013-03-26 21:42:00,36.0,32.0,30.23,SSW,202,2.0,3.0,86,0.00,,,0.00,TxWx,2013-03-27 01:42:00,
2013-03-26 21:47:00,36.0,32.0,30.23,SW,225,3.0,3.0,86,0.00,,,0.00,TxWx,2013-03-27 01:47:00,
2013-03-26 21:53:00,36.0,32.0,30.23,South,180,2.0,4.0,86,0.00,,,0.00,TxWx,2013-03-27 01:53:00,
2013-03-26 21:58:00,36.0,32.0,30.23,WSW,247,2.0,3.0,87,0.00,,,0.00,TxWx,2013-03-27 01:58:00,
2013-03-26 22:03:00,36.0,33.0,30.23,West,270,2.0,3.0,87,0.00,,,0.00,TxWx,2013-03-27 02:03:00,
2013-03-26 22:09:00,36.0,33.0,30.23,SSW,202,3.0,3.0,87,0.00,,,0.00,TxWx,2013-03-27 02:09:00,
2013-03-26 22:15:00,36.0,33.0,30.24,South,180,1.0,3.0,87,0.00,,,0.00,TxWx,2013-03-27 02:15:00,
2013-03-26 22:21:00,35.0,31.0,30.24,WSW,247,1.0,3.0,87,0.00,,,0.00,TxWx,2013-03-27 02:21:00,
2013-03-26 22:26:00,35.0,31.0,30.24,SW,225,1.0,3.0,87,0.00,,,0.00,TxWx,2013-03-27 02:26:00,
2013-03-26 22:32:00,35.0,31.0,30.24,SW,225,2.0,3.0,87,0.00,,,0.00,TxWx,2013-03-27 02:32:00,
2013-03-26 22:37:00,35.0,31.0,30.23,SW,225,3.0,3.0,87,0.00,,,0.00,TxWx,2013-03-27 02:37:00,
2013-03-26 22:43:00,35.0,30.0,30.24,WSW,247,1.0,3.0,87,0.00,,,0.00,TxWx,2013-03-27 02:43:00,
2013-03-26 22:48:00,35.0,30.0,30.23,West,270,3.0,3.0,85,0.00,,,0.00,TxWx,2013-03-27 02:48:00,
2013-03-26 22:54:00,36.0,30.0,30.24,WSW,247,4.0,5.0,82,0.00,,,0.00,TxWx,2013-03-27 02:54:00,
2013-03-26 22:59:00,36.0,29.0,30.23,WSW,247,2.0,3.0,80,0.00,,,0.00,TxWx,2013-03-27 02:59:00,
2013-03-26 23:05:00,36.0,29.0,30.23,SW,225,3.0,5.0,78,0.00,,,0.00,TxWx,2013-03-27 03:05:00,
2013-03-26 23:10:00,36.0,28.0,30.23,West,270,2.0,3.0,74,0.00,,,0.00,TxWx,2013-03-27 03:10:00,
2013-03-26 23:15:00,36.0,27.0,30.24,West,270,2.0,2.0,73,0.00,,,0.00,TxWx,2013-03-27 03:15:00,
2013-03-26 23:21:00,36.0,27.0,30.23,NW,315,3.0,4.0,72,0.00,,,0.00,TxWx,2013-03-27 03:21:00,
2013-03-26 23:27:00,36.0,27.0,30.23,WNW,292,1.0,1.0,72,0.00,,,0.00,TxWx,2013-03-27 03:27:00,
2013-03-26 23:32:00,36.0,27.0,30.24,WSW,247,1.0,3.0,72,0.00,,,0.00,TxWx,2013-03-27 03:32:00,
2013-03-26 23:38:00,36.0,27.0,30.24,SW,225,1.0,2.0,72,0.00,,,0.00,TxWx,2013-03-27 03:38:00,
2013-03-26 23:43:00,36.0,27.0,30.24,WSW,247,2.0,2.0,71,0.00,,,0.00,TxWx,2013-03-27 03:43:00,
2013-03-26 23:49:00,35.0,26.0,30.24,SSW,202,3.0,3.0,71,0.00,,,0.00,TxWx,2013-03-27 03:49:00,
2013-03-26 23:55:00,35.0,26.0,30.24,SSW,202,3.0,3.0,71,0.00,,,0.00,TxWx,2013-03-27 03:55:00,